Location: Okie-Tex Star Party
(36.8978°N, 102.9520°W)
Time: 09:22:34
(UTC-05:00)

Oscar 16 - Visible Passes

Search period start: 28 March 2015 00:00
Search period end: 07 April 2015 00:00
Orbit: 775 x 792 km, 98.5° (Epoch: 27 March)

Date Brightness Start Highest point End Pass type
(mag) Time Alt. Az. Time Alt. Az. Time Alt. Az.
29 Mar 13.3 04:17:50 10° N 04:18:04 11° N 04:18:04 11° N visible
30 Mar 13.4 03:45:55 10° N 03:46:18 12° N 03:46:18 12° N visible
31 Mar 13.6 03:14:25 10° NNE 03:14:32 11° NNE 03:14:32 11° NNE visible
01 Apr 13.2 04:22:49 10° N 04:23:22 12° NNW 04:23:22 12° NNW visible
02 Apr 13.2 03:50:51 10° N 03:51:36 14° N 03:51:36 14° N visible
03 Apr 13.4 03:19:17 10° NNE 03:19:50 13° NNE 03:19:50 13° NNE visible
04 Apr 13.0 04:27:51 10° NNW 04:28:40 14° NNW 04:28:40 14° NNW visible
05 Apr 13.0 03:55:46 10° N 03:56:54 17° N 03:56:54 17° N visible
06 Apr 13.2 03:24:09 10° NNE 03:25:08 16° NNE 03:25:08 16° NNE visible
